Whitefield, NH

2:18 PM EDT on March 24, 2017 (GMT -0400)
Mount Washington Regional

Weather History for KHIE - February, 2013

Change the Weather History Date:

Monday, February 25, 2013

  Actual Average Record
Temperature  
Mean Temperature 32 °F -  
Max Temperature 35 °F 31 °F 62 °F (2017)
Min Temperature 30 °F 4 °F -14 °F (2003)
Degree Days  
Heating Degree Days 32    
Moisture  
Dew Point 27 °F    
Average Humidity 84    
Maximum Humidity 93    
Minimum Humidity 70    
Precipitation  
Precipitation 0.01 in - - ()
Sea Level Pressure  
Sea Level Pressure 30.08 in    
Wind  
Wind Speed 1 mph (NNW)    
Max Wind Speed 6 mph    
Max Gust Speed -    
Visibility 9 miles    
Events Snow    
Averages and records for this station are not official NWS values.
T = Trace of Precipitation, MM = Missing Value Source: NWS Daily Summary

Daily Weather History Graph

Daily Weather History Graph

Search for Another Location

Airport or City:

Trip Planner

Search our weather history database for the weather conditions in past years. The results will help you decide how hot, cold, wet, or windy it might be!

Date:

Astronomy

Feb. 25, 2013 Rise Set
Actual Time 6:29 AM EST 5:29 PM EST
Civil Twilight 6:00 AM EST 5:58 PM EST
Nautical Twilight 5:26 AM EST 6:32 PM EST
Astronomical Twilight 4:53 AM EST 7:05 PM EST
Moon 5:41 PM EST (2/25) 5:57 AM EST (2/25)
Length of Visible Light 11h 57m
Length of Day
10h 59m
Full, 100% of the Moon is Illuminated
Feb 25
Full
Feb 25
Full
Mar 4
Last Quarter
Mar 11
New
Mar 19
First Quarter

Hourly Weather History & Observations

Time (EST) Temp. Windchill Dew Point Humidity Pressure Visibility Wind Dir Wind Speed Gust Speed Precip Events Conditions
12:52 AM 30.9 °F - 28.0 °F 89% 29.93 in 4.0 mi Calm Calm - 0.00 in Snow Light Snow
1:20 AM 30.2 °F - 28.4 °F 93% 29.89 in 4.0 mi Calm Calm - 0.00 in Snow Light Snow
1:42 AM 30.2 °F - 28.4 °F 93% 29.90 in 5.0 mi Calm Calm - 0.00 in Snow Light Snow
1:52 AM 30.0 °F - 27.0 °F 88% 29.95 in 7.0 mi Calm Calm - 0.00 in Snow Light Snow
2:52 AM 30.0 °F - 27.0 °F 88% 29.96 in 10.0 mi Calm Calm - 0.01 in   Overcast
3:52 AM 30.9 °F - 28.0 °F 89% 29.98 in 10.0 mi Calm Calm - 0.00 in   Overcast
4:04 AM 30.2 °F - 28.4 °F 93% 29.94 in 10.0 mi Calm Calm - N/A   Overcast
4:52 AM 30.0 °F - 27.0 °F 88% 29.99 in 10.0 mi Calm Calm - N/A   Overcast
5:17 AM 30.2 °F - 26.6 °F 86% 29.95 in 10.0 mi Calm Calm - N/A   Overcast
5:52 AM 30.9 °F - 28.0 °F 89% 30.01 in 10.0 mi Calm Calm - N/A   Overcast
6:52 AM 30.9 °F - 28.0 °F 89% 30.04 in 10.0 mi Calm Calm - N/A   Overcast
7:05 AM 30.2 °F 25.4 °F 26.6 °F 86% 30.00 in 10.0 mi NE 4.6 mph - N/A   Overcast
7:52 AM 32.0 °F - 27.0 °F 82% 30.06 in 10.0 mi Calm Calm - N/A   Overcast
8:20 AM 32.0 °F 26.4 °F 26.6 °F 80% 30.02 in 10.0 mi North 5.8 mph - N/A   Overcast
8:52 AM 32.0 °F 27.5 °F 25.0 °F 75% 30.07 in 10.0 mi NNW 4.6 mph - N/A   Overcast
9:52 AM 33.1 °F 28.7 °F 25.0 °F 72% 30.09 in 10.0 mi NNW 4.6 mph - N/A   Overcast
10:52 AM 34.0 °F 31.0 °F 25.0 °F 70% 30.09 in 10.0 mi NW 3.5 mph - N/A   Overcast
11:52 AM 35.1 °F - 26.1 °F 70% 30.09 in 10.0 mi Calm Calm - N/A   Overcast
12:52 PM 34.0 °F - 27.0 °F 75% 30.10 in 10.0 mi Calm Calm - N/A   Overcast
1:52 PM 35.1 °F 32.2 °F 27.0 °F 72% 30.11 in 10.0 mi West 3.5 mph - N/A   Overcast
2:52 PM 35.1 °F - 27.0 °F 72% 30.13 in 10.0 mi Calm Calm - N/A   Overcast
3:52 PM 35.1 °F - 28.0 °F 76% 30.15 in 10.0 mi Calm Calm - N/A   Overcast
4:52 PM 34.0 °F - 28.9 °F 82% 30.17 in 10.0 mi Calm Calm - N/A   Overcast
5:52 PM 33.1 °F - 30.0 °F 89% 30.18 in 10.0 mi Calm Calm - N/A   Overcast
6:32 PM 32.0 °F - 28.4 °F 87% 30.14 in 10.0 mi Calm Calm - N/A   Overcast
6:52 PM 32.0 °F - 28.9 °F 88% 30.19 in 10.0 mi Calm Calm - N/A   Overcast
7:52 PM 32.0 °F - 30.0 °F 92% 30.21 in 10.0 mi Calm Calm - N/A   Overcast
8:52 PM 30.9 °F - 28.9 °F 92% 30.22 in 10.0 mi Calm Calm - N/A   Overcast
9:52 PM 32.0 °F - 27.0 °F 82% 30.22 in 10.0 mi Calm Calm - N/A   Overcast
10:44 PM 30.2 °F - 26.6 °F 86% 30.18 in 10.0 mi Calm Calm - N/A   Overcast
10:52 PM 32.0 °F - 26.1 °F 79% 30.23 in 10.0 mi Calm Calm - N/A   Overcast
11:52 PM 30.9 °F - 27.0 °F 85% 30.24 in 10.0 mi Calm Calm - N/A   Overcast